Location: Rounton
(54.4000°N, 1.3500°W)
Time: 23:08:56
(UTC+00:00)

Vanguard 3 - Pass Details

Date: 03 December 2021
Orbit: 508 x 3260 km, 33.3° (Epoch: 17 January)

Event Time Altitude Azimuth Distance (km) Brightness Sun altitude
Rises 01:10:40 0° 176° (S) 6,975 - -54.7°
Reaches altitude 10° 01:20:52 10° 150° (SSE) 6,190 - -53.9°
Exits shadow 01:22:46 11° 145° (SE) 6,111 11.4 -53.7°
Maximum altitude 01:26:00 12° 135° (SE) 6,037 11.4 -53.5°
Drops below altitude 10° 01:31:01 10° 119° (ESE) 6,078 11.6 -53.0°
Sets 01:40:31 0° 93° (E) 6,681 12.1 -52.1°
